When you browse on this site, cookies collect data to enhance your experience and personalize the content and advertising you see.
Visit our Privacy Policy to learn more. By continuing to use the site, you agree to this use of cookies and data.
  • In Hungary
  • List of Countries
  • For 7 days
  • Water Temperature
  • Weather Map
  • News
  • Weather Widgets
  • user-avatar
    Login

    Hourly Weather Encamp

    Today, 1 June, Monday

    Time Temperature Precipitation Wind Pressure Humidity
    00:00 +11°C° 0 mm 1 mps 623 mmHg 97%
    01:00 +10°C° 0.1 mm 1 mps 623 mmHg 95%
    02:00 +10°C° 0.1 mm 1 mps 622 mmHg 93%
    03:00 +10°C° 0.1 mm 1 mps 622 mmHg 91%
    04:00 +10°C° 0.1 mm 1 mps 623 mmHg 90%
    05:00 +10°C° 0.1 mm 0 mps 623 mmHg 89%
    06:00 +11°C° 0.1 mm 0 mps 623 mmHg 87%
    07:00 +13°C° 0.3 mm 1 mps 624 mmHg 82%
    08:00 +14°C° 0.3 mm 1 mps 625 mmHg 77%
    09:00 +16°C° 0.3 mm 1 mps 626 mmHg 72%
    10:00 +15°C° 1.3 mm 2 mps 625 mmHg 76%
    11:00 +15°C° 1.3 mm 2 mps 625 mmHg 79%
    12:00 +15°C° 1.3 mm 2 mps 625 mmHg 83%
    13:00 +14°C° 2.2 mm 1 mps 625 mmHg 87%
    14:00 +12°C° 2.2 mm 1 mps 624 mmHg 91%
    15:00 +10°C° 2.2 mm 0 mps 623 mmHg 95%
    16:00 +11°C° 0.5 mm 0 mps 624 mmHg 92%
    17:00 +11°C° 0.5 mm 0 mps 624 mmHg 89%
    18:00 +11°C° 0.5 mm 0 mps 624 mmHg 86%
    19:00 +11°C° 0.1 mm 0 mps 624 mmHg 87%
    20:00 +11°C° 0.1 mm 1 mps 624 mmHg 88%
    21:00 +10°C° 0.1 mm 1 mps 624 mmHg 90%
    22:00 +9°C° 0 mm 1 mps 624 mmHg 89%
    23:00 +9°C° 0 mm 1 mps 624 mmHg 87%

    Tomorrow, 2 June, Tuesday

    Time Temperature Precipitation Wind Pressure Humidity
    00:00 +9°C° 0 mm 1 mps 623 mmHg 86%
    01:00 +9°C° 0 mm 1 mps 623 mmHg 85%
    02:00 +8°C° 0 mm 1 mps 623 mmHg 84%
    03:00 +8°C° 0 mm 1 mps 623 mmHg 83%
    04:00 +9°C° 0 mm 1 mps 623 mmHg 82%
    05:00 +10°C° 0 mm 1 mps 624 mmHg 81%
    06:00 +11°C° 0 mm 1 mps 624 mmHg 80%
    07:00 +13°C° 0 mm 1 mps 625 mmHg 73%
    08:00 +15°C° 0 mm 1 mps 626 mmHg 65%
    09:00 +18°C° 0 mm 1 mps 627 mmHg 58%
    10:00 +19°C° 0.1 mm 1 mps 627 mmHg 58%
    11:00 +18°C° 0.1 mm 2 mps 626 mmHg 58%
    12:00 +18°C° 0.1 mm 2 mps 626 mmHg 58%
    13:00 +18°C° 0.7 mm 1 mps 626 mmHg 64%
    14:00 +18°C° 0.7 mm 1 mps 625 mmHg 71%
    15:00 +16°C° 0.7 mm 1 mps 625 mmHg 78%
    16:00 +15°C° 0.8 mm 1 mps 624 mmHg 81%
    17:00 +14°C° 0.8 mm 0 mps 624 mmHg 84%
    18:00 +13°C° 0.8 mm 0 mps 623 mmHg 88%
    19:00 +12°C° 0.1 mm 0 mps 623 mmHg 90%
    20:00 +11°C° 0.1 mm 0 mps 623 mmHg 91%
    21:00 +11°C° 0.1 mm 1 mps 622 mmHg 93%
    22:00 +11°C° 0.4 mm 1 mps 622 mmHg 93%
    23:00 +11°C° 0.4 mm 1 mps 622 mmHg 93%

    Day after tomorrow, 3 June, Wednesday

    Time Temperature Precipitation Wind Pressure Humidity
    00:00 +11°C° 0.4 mm 1 mps 621 mmHg 93%
    01:00 +11°C° 0.4 mm 1 mps 621 mmHg 92%
    02:00 +11°C° 0.4 mm 1 mps 621 mmHg 91%
    03:00 +10°C° 0.4 mm 1 mps 620 mmHg 90%
    04:00 +11°C° 0 mm 1 mps 620 mmHg 88%
    05:00 +11°C° 0 mm 0 mps 620 mmHg 86%
    06:00 +12°C° 0 mm 0 mps 621 mmHg 84%
    07:00 +14°C° 0.5 mm 1 mps 621 mmHg 81%
    08:00 +15°C° 0.5 mm 1 mps 621 mmHg 78%
    09:00 +16°C° 0.5 mm 1 mps 622 mmHg 74%
    10:00 +16°C° 1.4 mm 1 mps 621 mmHg 76%
    11:00 +16°C° 1.4 mm 1 mps 621 mmHg 78%
    12:00 +16°C° 1.4 mm 2 mps 621 mmHg 80%
    13:00 +16°C° 1.2 mm 1 mps 620 mmHg 81%
    14:00 +15°C° 1.2 mm 1 mps 620 mmHg 83%
    15:00 +15°C° 1.2 mm 1 mps 619 mmHg 85%
    16:00 +14°C° 1.1 mm 1 mps 619 mmHg 86%
    17:00 +14°C° 1.1 mm 1 mps 618 mmHg 88%
    18:00 +13°C° 1.1 mm 1 mps 618 mmHg 89%
    19:00 +12°C° 0.9 mm 1 mps 618 mmHg 91%
    20:00 +12°C° 0.9 mm 1 mps 618 mmHg 92%
    21:00 +11°C° 0.9 mm 1 mps 618 mmHg 94%
    22:00 +11°C° 3.1 mm 1 mps 617 mmHg 95%
    23:00 +10°C° 3.1 mm 1 mps 617 mmHg 97%

    4 June, Thursday

    Time Temperature Precipitation Wind Pressure Humidity
    00:00 +10°C° 3.1 mm 1 mps 617 mmHg 98%
    01:00 +10°C° 1.4 mm 1 mps 617 mmHg 98%
    02:00 +10°C° 1.4 mm 1 mps 616 mmHg 98%
    03:00 +10°C° 1.4 mm 1 mps 616 mmHg 99%
    04:00 +9°C° 0.8 mm 1 mps 616 mmHg 98%
    05:00 +9°C° 0.8 mm 1 mps 616 mmHg 98%
    06:00 +9°C° 0.8 mm 1 mps 615 mmHg 98%
    07:00 +8°C° 2.2 mm 1 mps 615 mmHg 97%
    08:00 +7°C° 2.2 mm 2 mps 615 mmHg 97%
    09:00 +6°C° 2.2 mm 2 mps 615 mmHg 96%
    10:00 +7°C° 0.6 mm 2 mps 615 mmHg 93%
    11:00 +8°C° 0.6 mm 2 mps 616 mmHg 90%
    12:00 +8°C° 0.6 mm 2 mps 616 mmHg 86%
    13:00 +8°C° 1.1 mm 2 mps 616 mmHg 86%
    14:00 +8°C° 1.1 mm 2 mps 616 mmHg 86%
    15:00 +8°C° 1.1 mm 2 mps 615 mmHg 85%
    16:00 +8°C° 0.3 mm 2 mps 616 mmHg 85%
    17:00 +8°C° 0.3 mm 2 mps 616 mmHg 84%
    18:00 +8°C° 0.3 mm 2 mps 616 mmHg 83%
    19:00 +6°C° 0.1 mm 2 mps 616 mmHg 86%
    20:00 +5°C° 0.1 mm 2 mps 616 mmHg 89%
    21:00 +4°C° 0.1 mm 2 mps 616 mmHg 93%
    22:00 +4°C° 0 mm 2 mps 616 mmHg 92%
    23:00 +4°C° 0 mm 2 mps 617 mmHg 92%

    5 June, Friday

    Time Temperature Precipitation Wind Pressure Humidity
    00:00 +4°C° 0 mm 2 mps 617 mmHg 92%
    01:00 +3°C° 0 mm 2 mps 617 mmHg 92%
    02:00 +3°C° 0 mm 2 mps 616 mmHg 92%
    03:00 +3°C° 0 mm 2 mps 616 mmHg 91%
    04:00 +3°C° 0 mm 2 mps 617 mmHg 90%
    05:00 +4°C° 0 mm 2 mps 617 mmHg 88%
    06:00 +5°C° 0 mm 2 mps 618 mmHg 87%
    07:00 +7°C° 0 mm 2 mps 618 mmHg 77%
    08:00 +9°C° 0 mm 2 mps 619 mmHg 68%
    09:00 +10°C° 0 mm 2 mps 620 mmHg 59%
    10:00 +13°C° 0 mm 2 mps 621 mmHg 56%
    11:00 +14°C° 0 mm 2 mps 621 mmHg 54%
    12:00 +15°C° 0 mm 2 mps 622 mmHg 51%
    13:00 +15°C° 0 mm 2 mps 622 mmHg 53%
    14:00 +15°C° 0 mm 2 mps 622 mmHg 55%
    15:00 +15°C° 0 mm 2 mps 622 mmHg 57%
    16:00 +14°C° 0 mm 2 mps 622 mmHg 63%
    17:00 +13°C° 0 mm 2 mps 621 mmHg 69%
    18:00 +12°C° 0 mm 1 mps 621 mmHg 75%
    19:00 +11°C° 0 mm 1 mps 621 mmHg 80%
    20:00 +9°C° 0 mm 1 mps 621 mmHg 86%
    21:00 +8°C° 0 mm 1 mps 621 mmHg 92%
    22:00 +8°C° 0 mm 1 mps 621 mmHg 92%
    23:00 +7°C° 0 mm 1 mps 621 mmHg 92%

    6 June, Saturday

    Time Temperature Precipitation Wind Pressure Humidity
    00:00 +7°C° 0 mm 1 mps 621 mmHg 93%
    01:00 +7°C° 0 mm 1 mps 621 mmHg 93%
    02:00 +7°C° 0 mm 1 mps 620 mmHg 93%
    03:00 +7°C° 0 mm 1 mps 620 mmHg 93%
    04:00 +8°C° 0 mm 1 mps 621 mmHg 88%
    05:00 +8°C° 0 mm 0 mps 621 mmHg 84%
    06:00 +10°C° 0 mm 0 mps 622 mmHg 79%
    07:00 +12°C° 0 mm 1 mps 622 mmHg 71%
    08:00 +14°C° 0 mm 1 mps 623 mmHg 63%
    09:00 +16°C° 0 mm 2 mps 624 mmHg 54%
    10:00 +17°C° 0 mm 2 mps 624 mmHg 53%
    11:00 +18°C° 0 mm 2 mps 624 mmHg 51%
    12:00 +19°C° 0 mm 3 mps 624 mmHg 49%
    13:00 +18°C° 0.1 mm 3 mps 623 mmHg 52%
    14:00 +18°C° 0.1 mm 3 mps 623 mmHg 54%
    15:00 +18°C° 0.1 mm 3 mps 622 mmHg 57%
    16:00 +17°C° 0.2 mm 2 mps 622 mmHg 63%
    17:00 +16°C° 0.2 mm 2 mps 621 mmHg 68%
    18:00 +15°C° 0.2 mm 2 mps 621 mmHg 74%
    19:00 +14°C° 1.5 mm 1 mps 620 mmHg 81%
    20:00 +12°C° 1.5 mm 1 mps 620 mmHg 88%
    21:00 +11°C° 1.5 mm 1 mps 620 mmHg 94%
    22:00 +10°C° 3.5 mm 1 mps 620 mmHg 95%
    23:00 +10°C° 3.5 mm 1 mps 619 mmHg 96%
    Show more